Regional Weather Roundup
Issued by NWS

Home | Current Version | Previous Version | Text Only | Print | Product List | Glossary Off
Versions: 1 2 3 4 5 6 7 8 9 10 11 12 13 14 15 16 17 18 19 20 21 22 23 24 25 26 27 28 29 30 31 32 33 34 35 36 37 38 39 40 41 42 43 44 45 46 47 48 49 50

000
ASUS43 KBIS 200610
RWRND

NORTH DAKOTA REGIONAL WEATHER ROUNDUP
NATIONAL WEATHER SERVICE BISMARCK ND
100 AM CDT FRI OCT 20 2017

NOTE: "FAIR" INDICATES FEW OR NO CLOUDS BELOW 12,000 FEET WITH NO
SIGNIFICANT WEATHER AND/OR OBSTRUCTIONS TO VISIBILITY.


NDZ001>003-009>011-017-200700-
NORTHWEST NORTH DAKOTA

CITY           SKY/WX    TMP DP  RH WIND       PRES   REMARKS
WILLISTON      PTCLDY    46  35  65 CALM      29.55F
6HR MIN TEMP:  42; 6HR MAX TEMP:  69;

MINOT          FAIR      53  36  52 E3        29.59F
MINOT AFB      FAIR      50  36  57 S6        29.57F
$$

NDZ018>021-031>035-040>046-200700-
SOUTHWEST NORTH DAKOTA

CITY           SKY/WX    TMP DP  RH WIND       PRES   REMARKS
BISMARCK       CLEAR     45  37  73 NE7       29.63F
6HR MIN TEMP:  45; 6HR MAX TEMP:  64;

DICKINSON      CLEAR     47  28  47 S9        29.57F
GARRISON         N/A     48  38  68 E6        29.60F
6HR MIN TEMP:  48; 6HR MAX TEMP:  65;

HETTINGER ARPT CLEAR     42  32  67 CALM      29.62F
$$

NDZ004>008-012>016-024-026-027-054-200700-
NORTHEAST NORTH DAKOTA

CITY           SKY/WX    TMP DP  RH WIND       PRES   REMARKS
GRAND FORKS    FAIR      49  42  77 S7        29.68F
GRND FRKS AFB  FAIR      48  40  74 S7        29.68F
DEVILS LAKE    FAIR      46  41  82 SE5       29.66F
$$

NDZ022-023-025-028>030-036>039-047>053-200700-
SOUTHEAST NORTH DAKOTA

CITY           SKY/WX    TMP DP  RH WIND       PRES   REMARKS
FARGO          FAIR      58  48  69 SE13G22   29.71F
6HR MIN TEMP:  58; 6HR MAX TEMP:  64;

JAMESTOWN      FAIR      48  41  76 S7        29.67F
$$





USA.gov is the U.S. government's official web portal to all federal, state and local government web resources and services.